FW7738 Weather Reports


time (UTC)temp
F
wind
direction
speed
knots
gust
knots
rain 1hr
in
rain 24hr
in
rain mn
in
humidity
%
barometer
mb
20260505152026 78 278 7.0 13.0 0.00 0.00 0.00 24 1006.9
20260505151021 78 282 4.3 12.2 0.00 0.00 0.00 24 1007.1
20260505125017 76 285 4.3 13.9 0.00 0.00 0.00 27 1008.2
20260505124032 76 244 6.1 12.2 0.00 0.00 0.00 28 1008.3
20260505123048 75 310 5.2 13.0 0.00 0.00 0.00 28 1008.2
20260505122023 75 295 3.5 7.8 0.00 0.00 0.00 28 1008.2
20260505121019 76 259 7.0 13.9 0.00 0.00 0.00 29 1008.2
20260505120035 78 240 4.3 9.6 0.00 0.00 0.00 27 1008.3
20260505115050 77 216 5.2 15.6 0.00 0.00 0.00 27 1008.2
20260505114045 76 264 3.5 7.8 0.00 0.00 0.00 27 1008.5
20260505113020 76 278 3.5 9.6 0.00 0.00 0.00 28 1008.6
20260505112015 76 271 2.6 7.0 0.00 0.00 0.00 28 1008.8
20260505111031 76 280 1.7 5.2 0.00 0.00 0.00 29 1008.9
20260505102027 75 244 0.9 5.2 0.00 0.00 0.00 33 1009.3
20260505101021 75 246 1.7 3.5 0.00 0.00 0.00 33 1009.4
20260505100017 73 327 1.7 5.2 0.00 0.00 0.00 33 1009.5
20260505095033 72 279 4.3 7.0 0.00 0.00 0.00 34 1009.5
20260505094048 73 296 4.3 9.6 0.00 0.00 0.00 32 1009.5
20260505093044 72 281 2.6 6.1 0.00 0.00 0.00 36 1009.4
20260505092019 72 294 3.5 7.8 0.00 0.00 0.00 37 1009.7
20260505091034 72 284 0.9 2.6 0.00 0.00 0.00 45 1009.6
20260505090030 71 269 2.6 5.2 0.00 0.00 0.00 49 1009.7
20260505085025 70 224 2.6 5.2 0.00 0.00 0.00 51 1009.7
20260505084020 69 321 1.7 5.2 0.00 0.00 0.00 50 1009.8
20260505083036 68 259 1.7 5.2 0.00 0.00 0.00 55 1009.8
20260505082032 67 267 1.7 3.5 0.00 0.00 0.00 59 1009.9
20260505081046 66 253 3.5 6.1 0.00 0.00 0.00 61 1009.9
20260505080022 66 270 2.6 5.2 0.00 0.00 0.00 62 1009.9
20260505075018 65 285 2.6 7.0 0.00 0.00 0.00 60 1010.1
20260505074033 65 282 3.5 7.0 0.00 0.00 0.00 59 1010.1
20260505073029 64 286 3.5 7.8 0.00 0.00 0.00 61 1010.1
20260505072024 64 318 4.3 7.8 0.00 0.00 0.00 64 1010.2
20260505071020 63 308 1.7 5.2 0.00 0.00 0.00 70 1010.2
20260505070016 62 317 2.6 6.1 0.00 0.00 0.00 73 1010.2
20260505065031 62 295 1.7 3.5 0.00 0.00 0.00 75 1010.3
20260505064026 61 279 2.6 6.1 0.00 0.00 0.00 76 1010.2
20260505063021 61 282 3.5 5.2 0.00 0.00 0.00 80 1010.1
20260505062037 60 291 2.6 5.2 0.00 0.00 0.00 81 1010.2
20260505061032 60 304 2.6 6.1 0.00 0.00 0.00 83 1010.0
20260505060028 60 279 2.6 7.8 0.00 0.00 0.00 84 1010.1
20260505055024 59 286 2.6 5.2 0.00 0.00 0.00 86 1010.0
20260505054018 59 297 1.7 3.5 0.00 0.00 0.00 87 1010.0
20260505053034 59 287 2.6 7.0 0.00 0.00 0.00 89 1009.9
20260505052029 59 280 1.7 5.2 0.00 0.00 0.00 90 1009.8
20260505051024 59 295 0.9 2.6 0.00 0.00 0.00 91 1009.8
20260505041016 60 314 0.0 0.9 0.00 0.00 0.00 91 1009.9
20260505040031 60 334 0.9 1.7 0.00 0.00 0.00 91 1009.9
20260505035027 60 313 0.0 0.9 0.00 0.00 0.00 91 1010.0
20260505034022 60 331 0.0 0.9 0.00 0.00 0.00 91 1010.1
20260505033017 59 0.0 0.0 0.00 0.00 0.00 91 1010.1
20260505032032 59 0.0 0.0 0.00 0.00 0.00 90 1010.2
20260505031028 60 0.0 0.0 0.00 0.00 0.00 90 1010.2
20260505030043 60 0.0 0.0 0.00 0.00 0.00 90 1010.2
20260505025038 60 0.0 0.0 0.00 0.00 0.00 90 1010.2
20260505024054 60 318 0.9 0.9 0.00 0.00 0.00 91 1010.2
20260505023029 60 301 0.9 1.7 0.00 0.00 0.00 91 1010.2
20260505022025 60 306 0.9 1.7 0.00 0.00 0.00 92 1010.3
20260505021020 60 330 0.9 2.6 0.00 0.00 0.00 92 1010.1
20260505020016 60 350 0.9 1.7 0.00 0.00 0.00 92 1010.1
20260505015031 60 338 0.9 2.6 0.00 0.00 0.00 92 1010.2
20260505014046 60 341 1.7 2.6 0.00 0.00 0.00 92 1010.1
20260505013042 60 6 0.9 1.7 0.00 0.00 0.00 92 1010.2
20260505012018 60 346 0.9 2.6 0.00 0.00 0.00 91 1010.3
20260505011033 60 345 0.9 1.7 0.00 0.00 0.00 91 1010.5
20260505010109 60 0.0 0.0 0.00 0.00 0.00 91 1010.7
20260505005023 60 344 0.0 0.9 0.00 0.00 0.00 91 1010.8
20260505004019 60 349 0.0 0.9 0.00 0.00 0.00 91 1010.9
20260505003034 60 322 0.9 0.9 0.00 0.00 0.00 91 1010.9
20260505002029 60 356 0.0 0.9 0.00 0.00 0.00 91 1011.0
20260505001025 60 6 0.0 0.9 0.00 0.00 0.00 90 1010.9
20260505000020 60 0.0 0.0 0.00 0.00 0.00 90 1011.0
20260504235015 61 0.0 0.0 0.00 0.00 0.00 90 1010.9
20260504234051 61 0.0 0.0 0.00 0.00 0.00 89 1010.9
20260504233026 61 0.0 0.0 0.00 0.00 0.00 89 1010.9
20260504232021 61 0.0 0.0 0.00 0.00 0.00 89 1011.0
20260504231017 61 0.0 0.0 0.00 0.00 0.00 89 1010.9
20260504230032 61 0.0 0.0 0.00 0.00 0.00 89 1010.9
20260504225027 62 0.0 0.0 0.00 0.00 0.00 89 1010.8
20260504224023 62 0.0 0.0 0.00 0.00 0.00 89 1010.8
20260504223018 62 56 0.0 0.9 0.00 0.00 0.00 89 1010.8
20260504222033 62 0.0 0.0 0.00 0.00 0.00 89 1010.8
20260504221049 62 78 0.9 0.9 0.00 0.00 0.00 89 1010.7
20260504220024 62 75 0.0 0.9 0.00 0.00 0.00 89 1010.6
20260504215020 62 0.0 0.0 0.00 0.00 0.00 88 1010.7
20260504214036 62 81 0.9 0.9 0.00 0.00 0.00 88 1010.6
20260504213031 62 0.0 0.0 0.00 0.00 0.00 88 1010.6
20260504212047 62 78 0.0 1.7 0.00 0.00 0.00 88 1010.6
20260504211042 63 89 1.7 2.6 0.00 0.00 0.00 88 1010.5
20260504210018 63 86 0.9 1.7 0.00 0.00 0.00 88 1010.6
20260504205033 63 81 1.7 2.6 0.00 0.00 0.00 87 1010.4
20260504204028 64 65 0.9 2.6 0.00 0.00 0.00 87 1010.4
20260504203023 64 59 1.7 6.1 0.00 0.00 0.00 87 1010.2
20260504202019 64 62 1.7 7.0 0.00 0.00 0.00 88 1010.1
20260504201034 64 57 1.7 7.0 0.00 0.00 0.00 88 1009.8
20260504200030 64 51 1.7 6.1 0.00 0.00 0.00 87 1009.6
20260504195025 64 66 2.6 7.0 0.00 0.00 0.00 86 1009.5
20260504194020 65 70 1.7 6.1 0.00 0.00 0.00 85 1009.4
20260504193016 65 57 1.7 5.2 0.00 0.00 0.00 85 1009.1
20260504192031 65 71 1.7 7.0 0.00 0.00 0.00 84 1009.0
20260504191027 65 64 1.7 6.1 0.00 0.00 0.00 83 1008.9
20260504190023 65 60 3.5 7.8 0.00 0.00 0.00 83 1009.0
20260504185018 66 61 1.7 7.8 0.00 0.00 0.00 81 1008.8
20260504184033 67 50 4.3 8.7 0.00 0.00 0.00 80 1008.8
20260504183029 67 56 4.3 9.6 0.00 0.00 0.00 79 1008.6
20260504182024 67 57 4.3 13.0 0.00 0.00 0.00 79 1008.6
20260504181020 67 62 4.3 13.9 0.00 0.00 0.00 80 1008.5
20260504180035 67 68 3.5 11.3 0.00 0.00 0.00 80 1008.4
20260504175030 68 62 2.6 8.7 0.00 0.00 0.00 78 1008.4
20260504174025 67 82 3.5 12.2 0.00 0.00 0.00 78 1008.1
20260504173021 67 88 5.2 9.6 0.00 0.00 0.00 79 1008.2
20260504172016 67 86 3.5 8.7 0.00 0.00 0.00 78 1008.1
20260504171052 68 91 5.2 13.0 0.00 0.00 0.00 78 1007.9